Theta_e
313 314 315 317 318 319 319 318 319 319 320 319 319 321 321 321 314 297 293 306 313 322 320 305 308 312 311 306 308 309 298 294 294 295 296 301 299 302 301 296 296 297 295 297 301
313 313 314 315 317 318 318 318 319 320 321 320 319 320 320 320 300 293 306 316 319 322 304 298 296 306 303 305 304 302 297 296 300 299 297 302 297 299 298 294 294 294 298 299 300
311 312 313 314 316 317 318 319 319 319 319 319 318 318 319 316 292 292 311 315 317 318 306 300 298 300 301 303 304 300 296 302 300 300 301 301 298 299 295 292 293 292 294 296 297
310 310 311 312 315 316 317 319 318 317 317 319 317 315 309 295 280 294 311 311 314 307 302 299 296 293 297 298 303 299 302 303 302 301 301 299 300 296 295 294 297 297 296 295 294
309 309 310 312 314 315 316 318 318 318 315 314 314 313 295 286 287 297 307 301 302 302 298 298 295 293 290 298 296 298 301 300 303 300 300 303 299 296 295 298 298 296 294 293 293
308 309 309 311 313 315 316 317 317 317 316 313 310 306 290 282 295 295 294 296 298 299 297 297 295 295 292 292 290 294 296 300 300 299 298 294 295 297 295 296 294 294 292 292 292
308 308 309 310 313 314 314 315 315 314 316 315 312 296 289 286 295 293 293 294 297 299 296 296 296 294 294 291 294 293 289 288 287 291 293 295 288 288 293 292 290 290 291 291 291
307 307 308 309 313 313 313 312 313 314 312 313 308 292 285 295 297 294 293 294 297 300 296 296 295 292 290 293 289 287 286 282 285 285 291 292 282 288 291 289 287 288 288 289 289
306 307 308 308 311 313 312 312 310 311 310 305 292 287 283 297 290 293 290 290 294 297 294 295 290 284 285 284 280 281 277 279 283 285 288 289 282 287 290 288 286 286 287 287 288
306 306 307 307 310 312 313 314 307 302 296 294 293 284 287 285 289 291 291 293 294 292 288 286 283 279 280 279 273 275 276 276 275 281 286 283 282 285 286 286 285 285 286 285 286
305 305 306 308 308 309 302 297 288 286 288 284 284 285 287 290 292 289 289 290 289 285 278 282 276 272 274 277 280 276 274 273 276 281 283 282 281 282 284 283 283 282 283 284 285
305 305 305 307 306 305 296 289 288 288 282 288 288 287 289 289 283 287 290 286 282 276 279 276 273 277 280 280 277 276 274 273 277 281 283 281 280 282 282 282 283 282 282 282 284
304 305 305 307 306 297 291 291 297 294 282 284 287 285 286 287 282 283 284 284 281 277 276 273 275 280 278 276 276 275 273 273 274 278 282 280 278 279 281 282 282 282 283 284 283
303 304 304 306 295 290 288 293 297 294 276 279 283 285 286 286 281 287 285 282 281 278 276 275 277 277 276 275 276 274 277 276 276 274 269 280 269 276 277 278 280 280 279 280 282
303 302 302 298 289 287 291 293 296 289 265 280 282 290 286 281 281 282 285 283 276 276 276 274 274 274 273 275 277 275 277 277 277 274 271 274 267 274 278 275 276 277 279 279 281
302 301 298 291 287 288 291 294 289 275 263 278 281 280 278 279 280 282 279 281 280 278 277 275 278 275 274 276 277 278 278 276 278 274 262 269 268 269 274 274 275 276 278 279 280
301 300 294 290 284 289 292 288 275 268 277 274 276 279 277 275 277 277 275 273 270 269 270 274 273 276 276 274 277 276 271 257 260 259 262 271 266 270 274 276 275 275 276 278 279
300 298 294 291 289 291 289 280 267 266 272 279 278 278 274 275 275 275 274 270 272 271 267 266 267 273 276 274 272 273 269 261 255 259 262 270 262 269 277 277 276 277 277 278 278
300 289 286 290 290 290 283 269 269 273 279 276 277 273 273 275 273 273 270 270 272 272 265 264 269 275 276 275 274 271 267 274 258 252 257 266 272 277 278 275 274 275 276 276 278
286 286 285 292 291 285 277 271 273 279 278 278 274 273 268 271 270 270 270 273 273 275 275 270 264 274 276 276 276 274 275 263 258 253 252 262 264 267 274 276 274 273 274 275 277
286 281 287 291 287 281 271 266 278 278 279 277 274 273 272 271 271 268 269 274 274 273 276 272 266 269 274 270 269 270 269 268 263 262 254 254 262 268 274 276 273 272 275 276 277
284 276 287 288 278 262 265 272 280 276 278 277 277 276 274 273 271 270 270 274 277 275 270 274 263 259 268 272 272 273 269 268 258 259 262 262 262 275 274 275 275 276 278 279 279
279 277 286 285 270 261 271 276 276 275 276 276 275 276 274 273 265 272 269 275 277 276 271 272 262 255 262 267 272 269 272 271 264 261 256 256 261 274 274 274 277 276 277 278 279
280 275 277 279 277 274 268 269 270 277 276 277 276 275 274 271 273 264 270 276 277 275 281 276 265 262 261 263 266 266 268 267 262 254 261 263 266 272 273 274 276 277 277 278 278
278 271 276 268 271 274 274 270 268 270 275 275 274 274 272 263 269 264 269 274 275 278 276 270 259 264 265 268 268 269 269 270 265 266 259 267 267 271 273 274 275 277 277 277 277
276 276 274 270 277 275 273 272 272 273 274 272 273 274 273 266 271 265 270 272 272 274 273 273 259 262 259 265 268 267 269 270 270 270 268 268 268 274 276 276 274 275 276 276 277
281 282 278 273 274 271 271 274 275 276 276 276 275 274 273 274 275 275 276 275 275 272 269 266 261 256 255 262 259 258 263 268 269 270 268 264 270 273 271 273 275 274 275 276 277
Wind_Speed
18 19 18 17 15 14 14 14 12 10 8 5 3 4 5 7 5 23 19 15 14 19 10 5 4 4 4 5 4 0 4 5 2 3 3 7 12 11 17 21 22 12 15 6 16
19 19 18 17 15 14 14 14 12 10 9 6 4 4 4 5 3 19 21 27 25 20 6 5 7 5 5 4 3 3 3 5 7 3 2 6 22 12 15 21 15 22 22 23 24
18 18 17 17 15 14 13 13 12 12 9 4 4 7 2 1 7 8 28 29 25 19 3 2 3 2 5 2 2 1 4 10 9 8 8 8 17 17 16 18 16 17 18 22 25
17 17 16 15 14 13 13 13 14 13 14 7 4 7 16 7 6 8 27 28 24 10 4 3 4 5 5 6 3 8 8 5 5 5 3 9 7 17 20 13 15 16 16 21 25
17 16 15 14 13 12 13 13 14 14 14 17 10 4 8 10 4 15 23 20 11 8 7 4 6 3 4 4 5 9 5 8 10 8 6 10 12 14 15 15 17 19 24 23 20
16 15 14 14 11 11 12 11 11 10 7 14 14 5 8 17 7 13 14 10 7 7 7 8 3 2 5 4 6 6 8 7 4 11 14 21 15 8 14 14 21 23 22 21 22
16 15 14 14 11 10 13 11 10 13 9 5 4 5 23 6 8 12 9 4 6 4 6 5 4 5 1 4 3 11 15 14 13 6 7 7 22 15 12 15 20 20 17 19 21
17 15 14 13 12 7 14 18 11 11 13 11 8 7 9 4 9 21 15 8 9 8 6 9 7 6 6 4 8 6 6 5 6 14 7 10 8 12 11 16 17 16 15 16 19
17 16 14 13 12 10 10 11 14 10 14 12 11 8 7 16 19 14 5 6 7 6 12 10 8 6 11 5 6 8 3 5 3 17 1 7 7 8 10 14 15 13 13 14 15
16 14 13 12 15 10 7 2 16 15 8 3 9 6 8 9 8 10 9 9 6 6 10 14 10 8 10 9 3 2 4 4 5 9 19 17 12 8 9 13 12 11 11 13 14
15 14 12 10 15 10 5 4 7 12 15 11 3 6 6 11 2 16 9 11 10 10 8 11 15 9 7 4 5 6 5 3 3 4 8 11 10 7 7 10 10 9 8 10 12
17 14 11 8 16 10 7 7 2 5 10 4 5 2 4 6 7 25 14 10 13 12 3 8 16 7 4 7 9 8 4 5 3 5 11 9 9 6 6 7 8 8 8 8 9
17 16 15 3 5 11 7 4 4 2 8 6 5 5 5 6 6 13 9 5 7 15 17 12 4 5 6 10 8 4 6 4 3 6 8 11 4 4 4 5 7 7 5 6 7
17 17 16 6 10 2 4 5 4 1 8 14 11 9 11 5 7 5 7 0 8 3 4 9 6 6 7 6 3 2 4 2 3 3 4 3 2 4 4 3 5 5 6 6 6
16 18 12 8 7 5 2 4 4 3 8 10 8 5 9 11 5 13 6 9 11 7 6 1 5 7 7 4 5 5 9 2 2 3 4 6 5 2 4 2 3 5 6 6 7
13 18 6 6 5 1 3 3 3 12 3 5 6 8 7 8 9 9 10 9 3 7 7 4 3 4 4 5 3 9 3 6 5 3 5 5 5 4 5 5 3 2 4 4 5
9 10 8 2 2 2 2 3 10 10 4 6 4 5 4 7 7 10 7 14 7 6 8 6 4 5 4 5 7 10 7 5 7 7 5 2 4 7 5 4 5 2 2 5 5
6 6 4 3 1 2 3 9 11 4 5 1 1 1 5 6 5 8 4 6 7 6 4 5 6 8 9 3 3 5 4 6 4 2 6 7 4 4 6 6 4 1 2 5 6
5 3 3 4 1 2 7 9 10 8 4 5 2 4 4 4 3 5 5 2 4 6 6 4 1 4 3 3 2 6 7 4 8 1 5 4 5 2 3 3 1 3 5 7 8
4 3 3 6 2 5 10 5 3 1 4 2 3 3 1 3 4 5 1 2 1 4 2 2 3 2 5 4 5 6 1 4 5 3 5 5 5 6 7 6 3 3 6 7 7
5 4 4 6 3 9 6 6 4 3 2 1 3 3 2 3 4 1 2 2 2 2 5 3 4 4 1 5 1 5 3 6 5 4 6 2 8 7 7 6 6 3 5 8 8
4 3 3 3 8 2 3 7 4 3 2 2 3 3 4 3 2 3 2 2 3 2 3 1 5 1 2 6 4 1 3 4 7 6 2 3 10 3 1 3 0 7 14 15 9
4 2 3 4 5 1 3 2 1 4 4 4 3 2 1 4 3 2 2 1 3 2 4 3 2 4 7 7 5 1 2 4 5 4 6 6 9 2 6 6 14 14 15 16 12
4 2 6 6 2 9 7 3 3 1 3 4 4 3 4 2 3 5 3 3 5 3 7 6 2 7 8 6 4 2 3 3 7 4 4 10 9 20 18 19 16 17 17 16 12
4 3 3 2 4 5 4 5 5 5 2 3 1 5 7 4 2 2 3 3 3 6 3 6 4 1 5 6 4 9 14 13 12 10 7 15 15 19 16 16 16 17 16 14 9
6 6 3 2 3 6 1 7 10 5 9 4 5 8 6 8 9 10 7 4 5 3 6 3 3 3 6 4 5 13 19 17 16 16 16 23 24 24 21 15 10 14 11 10 10
1 2 5 3 2 5 6 7 10 9 5 4 8 6 6 7 6 3 5 5 6 8 7 6 5 4 7 4 6 9 11 14 6 7 8 9 13 7 7 10 11 10 10 12 10
Wind_Direction
24 19 18 18 20 25 19 13 7 0 348 337 1 1 2 355 5 36 36 326 329 327 324 297 347 15 5 68 49 304 90 134 74 344 316 31 33 19 44 58 52 48 46 356 12
23 18 14 12 11 16 14 11 11 359 349 353 3 341 351 340 55 34 346 338 332 329 340 357 355 5 59 85 56 57 95 115 85 46 331 67 40 37 51 36 32 26 23 20 29
21 17 12 8 6 9 10 3 1 3 3 343 38 5 43 149 58 330 346 335 329 328 224 296 323 34 61 71 48 109 105 123 65 58 18 76 53 41 42 48 38 36 25 24 27
20 16 10 8 4 5 8 8 16 11 24 63 100 61 33 51 60 302 332 329 325 331 25 31 11 35 55 61 23 93 111 91 105 49 72 77 75 61 57 63 59 47 43 38 32
13 12 10 8 8 3 7 4 14 17 24 65 55 50 50 51 23 312 317 325 331 351 29 33 46 41 65 99 73 87 133 127 132 157 91 113 90 95 59 54 50 44 40 39 35
8 8 14 10 13 2 357 347 360 14 27 69 62 13 78 61 288 316 319 322 359 353 7 27 17 16 77 72 67 76 86 127 104 77 86 74 63 51 45 57 54 48 40 33 32
2 7 14 14 15 11 26 6 357 15 41 126 48 66 57 35 314 321 334 306 323 337 352 11 308 83 75 78 40 137 87 62 18 8 138 107 44 51 43 57 58 57 51 42 33
359 6 13 15 14 24 13 30 23 31 18 72 43 66 79 318 304 5 341 341 0 7 47 0 40 74 40 334 24 35 53 71 25 11 16 88 66 37 40 56 53 49 45 42 37
0 4 6 9 4 349 335 345 41 37 44 25 36 77 3 328 5 324 343 317 307 3 25 22 53 62 9 52 34 12 68 43 38 8 123 92 102 46 44 60 59 46 43 39 34
2 2 358 5 356 347 322 285 56 32 357 35 58 40 14 315 318 321 332 343 24 2 19 21 44 56 27 35 92 11 56 30 42 0 79 88 96 62 52 62 58 48 42 39 32
0 3 350 1 5 9 36 13 23 9 41 94 275 100 283 302 6 358 347 355 12 47 60 25 60 34 334 342 94 100 84 53 356 51 75 96 96 79 60 62 57 46 38 38 32
360 4 344 356 38 45 67 72 86 171 81 47 112 92 300 331 10 2 6 58 38 51 22 42 48 330 351 32 66 51 64 2 295 344 101 109 91 78 65 64 58 48 40 34 25
3 358 342 45 97 48 73 84 314 349 82 24 42 24 342 5 40 346 20 356 62 52 55 74 312 318 40 34 25 46 82 329 237 6 67 119 115 104 64 65 61 43 27 17 18
6 357 355 151 51 137 53 312 338 353 78 344 351 8 353 334 49 341 11 261 37 112 77 69 336 25 31 59 358 311 102 268 266 81 169 148 241 202 147 80 48 30 21 8 7
3 2 22 53 143 66 158 317 315 60 56 318 334 297 343 67 297 350 357 26 59 22 83 73 5 11 33 342 330 267 322 213 180 95 70 342 74 260 178 63 32 23 13 8 6
1 3 6 21 52 41 328 323 42 44 272 353 344 357 19 16 3 325 13 32 60 59 45 75 1 46 305 296 312 296 18 44 53 64 36 259 117 232 202 176 142 25 352 352 0
3 19 31 16 119 324 32 44 39 95 323 305 332 7 59 359 11 14 25 39 40 40 14 346 20 338 18 359 346 15 43 357 2 11 212 25 36 241 165 179 138 140 349 354 357
358 32 23 40 45 76 57 51 70 244 230 185 319 29 71 7 15 16 41 27 23 37 66 35 352 12 335 59 297 357 93 135 199 313 288 335 260 286 185 119 120 112 12 1 332
59 18 18 337 140 78 76 52 191 200 152 152 58 70 353 17 84 57 54 60 16 20 110 48 316 329 10 354 60 313 41 145 103 71 33 274 289 313 188 136 51 350 360 327 313
83 50 313 332 133 68 72 180 170 157 104 88 153 138 175 321 55 48 49 279 86 42 110 198 30 2 311 354 18 82 104 42 9 57 304 293 275 244 223 222 247 316 325 304 307
62 52 265 347 54 47 117 205 156 102 103 138 170 125 138 152 110 144 219 230 136 38 72 107 95 291 27 28 312 352 35 58 110 125 167 287 269 217 214 211 224 266 295 284 288
97 42 303 51 53 26 112 171 137 157 92 115 116 122 151 150 113 128 196 197 133 122 106 140 141 227 208 294 268 135 170 108 115 273 222 157 270 293 73 259 306 297 302 302 290
103 224 330 84 121 5 300 73 124 137 169 151 128 125 142 150 74 196 155 127 132 95 162 209 327 9 349 355 351 122 198 119 102 70 218 138 262 252 285 274 312 310 301 300 297
85 46 337 45 76 129 139 197 126 32 143 132 125 110 89 118 65 198 193 188 174 140 140 94 133 170 195 197 136 260 228 155 128 135 205 227 274 280 294 293 299 300 296 296 292
36 243 174 231 319 112 104 126 139 170 154 131 121 191 156 118 84 240 277 160 157 208 123 117 188 200 259 249 211 245 254 239 211 224 200 272 260 270 274 281 285 286 290 294 276
130 132 5 150 88 96 336 215 164 181 147 219 211 178 161 156 178 192 146 200 193 152 156 156 261 85 302 330 268 261 257 246 242 246 246 252 268 265 269 277 271 277 288 281 261
212 75 103 285 95 93 211 183 194 148 220 184 173 127 177 219 166 178 161 162 172 158 174 152 129 77 269 345 341 300 243 222 180 199 189 208 240 273 261 266 275 273 285 281 259